Theta_e
303 303 303 303 302 302 302 301 300 300 299 299 299 298 299 299 299 299 299 298 298 299 299 299 299 299 299 299 298 297 296 294 292 290 288 288 287 287 287 287 287 287 287 287 287 287 287 287 287 287 288 288 288 288 288 288 288 288 288 288 288 288 289 289 289 289 290 290 290 290 290 290 290 290 290 290 290 290 290 291 291 291 292 291 291 291
302 302 302 302 301 301 300 300 299 299 298 298 298 298 298 298 298 298 298 298 298 298 298 298 298 298 298 298 297 295 293 291 289 288 287 287 287 287 287 287 287 287 287 287 287 288 288 288 288 288 288 288 288 288 288 288 288 288 288 288 288 288 288 288 288 289 289 289 289 289 289 289 289 289 289 289 289 289 289 290 290 290 291 291 291 291
302 301 301 301 300 300 300 299 299 298 298 298 298 298 298 298 298 298 298 298 297 298 297 297 297 297 296 295 294 292 290 289 288 287 287 287 287 287 287 287 287 287 287 288 288 288 288 288 288 288 288 288 288 288 288 288 288 288 288 288 288 288 288 288 288 288 288 288 288 288 288 288 288 288 288 288 288 288 288 289 289 290 291 291 291 291
301 301 301 300 300 300 300 299 299 298 298 298 298 298 298 298 298 298 297 297 297 297 296 296 295 294 293 291 290 289 288 287 287 287 286 286 286 286 286 286 287 287 287 288 288 288 288 288 288 288 288 288 288 288 288 288 288 288 288 288 288 289 288 288 288 288 288 288 288 288 288 288 288 288 288 288 288 288 288 288 288 289 289 289 290 290
300 300 300 300 300 300 299 299 298 298 298 298 297 297 297 298 298 297 297 297 296 296 295 294 292 291 289 288 287 287 287 287 287 286 286 286 286 286 286 286 287 287 287 287 288 288 288 288 288 288 288 288 288 288 288 288 288 288 289 289 289 289 289 288 288 288 288 288 288 288 288 288 288 288 288 288 288 288 288 288 288 288 288 289 289 289
300 299 299 299 299 299 299 299 299 298 298 297 297 297 297 297 297 297 297 296 295 294 293 291 290 288 288 288 288 287 287 287 286 286 286 286 286 286 286 286 287 287 287 287 287 288 288 288 288 288 288 288 288 288 288 289 289 289 289 289 289 289 289 289 289 289 289 288 288 288 288 288 288 288 288 288 288 288 288 288 288 288 288 288 288 289
299 299 299 299 299 299 299 299 298 298 298 297 297 297 297 297 297 296 296 295 293 292 290 289 288 288 288 288 287 287 287 286 286 286 286 285 286 286 286 286 287 287 287 287 287 287 287 288 288 288 288 288 288 288 289 289 288 288 288 288 288 289 288 289 289 288 288 288 288 288 288 288 288 288 288 288 288 288 288 288 288 288 288 288 288 289
299 299 299 299 299 299 299 299 298 298 297 297 297 296 296 296 295 294 293 292 291 289 289 288 288 288 288 287 287 287 286 286 286 286 285 285 286 286 286 286 287 287 287 287 287 287 288 288 288 288 288 288 288 288 288 288 288 288 288 288 288 288 288 288 288 288 288 288 288 288 288 288 288 288 288 288 288 288 288 288 288 288 288 288 289 289
299 299 299 299 299 299 299 298 297 297 296 296 296 295 294 293 292 290 289 289 288 288 288 288 288 287 287 287 286 286 286 286 286 285 285 285 286 286 286 287 287 287 287 287 287 287 288 288 288 288 288 287 287 287 287 287 287 287 287 287 287 287 287 288 288 288 288 288 288 288 288 288 288 288 288 288 288 288 288 288 288 288 288 288 288 289
298 298 298 298 298 298 298 297 296 295 294 293 293 292 291 290 289 288 288 288 288 288 288 288 288 287 287 286 286 286 286 286 285 285 285 285 286 286 287 287 287 287 287 287 287 287 287 287 287 287 287 287 287 287 287 287 287 287 287 288 288 288 288 288 288 288 288 288 288 288 288 288 288 288 288 288 288 288 288 288 288 288 288 288 288 288
298 298 297 297 297 296 295 294 293 292 290 290 290 289 289 288 288 288 288 288 288 288 288 287 287 287 286 286 286 286 286 285 285 285 285 285 286 286 287 287 287 287 287 287 287 287 287 287 287 287 287 287 287 287 287 288 288 288 288 288 288 288 288 288 288 288 288 288 288 288 288 288 288 288 288 288 288 288 288 288 288 288 288 288 288 288
296 296 295 295 294 293 292 291 290 289 289 289 288 288 288 288 288 288 288 288 288 287 287 287 287 286 286 286 286 286 285 285 285 285 285 286 286 286 287 287 287 287 287 287 287 287 287 287 287 287 287 287 288 288 288 288 288 288 288 288 288 288 288 288 288 288 288 288 288 288 288 288 288 288 288 288 288 288 288 288 288 288 288 287 288 288
294 294 293 292 291 290 289 289 289 289 288 288 288 288 288 288 288 288 288 288 288 287 287 287 287 286 286 286 286 285 285 285 285 285 285 286 286 287 287 287 287 287 287 287 287 287 287 287 287 287 288 288 288 288 288 288 288 288 288 288 288 288 288 288 288 288 288 288 288 288 288 288 288 288 288 288 288 287 287 287 287 287 287 287 287 287
292 291 290 289 289 289 289 289 289 288 289 288 288 288 288 288 288 288 288 288 287 287 287 287 286 286 286 285 285 285 284 284 285 285 286 286 287 287 287 287 287 287 287 287 287 287 287 287 288 288 288 288 288 288 288 288 288 288 288 288 288 288 288 288 288 288 288 288 288 288 288 288 288 288 288 288 288 288 288 288 288 288 288 288 288 288
290 289 289 289 289 289 289 289 289 289 289 288 288 288 288 288 288 288 288 288 287 287 287 287 286 286 285 285 285 284 284 285 285 286 286 287 287 287 287 287 287 287 287 287 287 287 287 288 288 288 288 288 288 288 288 289 289 289 289 288 288 288 288 288 288 288 288 288 288 288 288 288 288 288 288 288 288 288 288 288 288 288 288 288 288 288
289 289 289 289 289 289 289 289 289 289 288 288 288 288 288 288 288 288 288 288 287 287 286 286 285 285 285 284 284 284 285 285 286 286 287 287 287 287 287 287 287 288 287 287 287 287 288 288 288 288 288 288 288 289 289 289 289 289 289 288 288 288 288 288 288 288 288 287 288 288 288 288 288 288 288 288 288 288 288 288 288 288 288 288 288 288
289 289 289 289 289 289 289 289 289 288 288 288 288 288 288 288 288 288 288 287 287 286 286 285 285 284 284 284 284 284 285 286 286 287 287 287 287 287 287 287 288 288 288 287 287 288 288 288 288 288 288 288 289 289 289 289 289 288 288 288 288 288 288 288 288 288 288 288 288 288 288 288 288 288 288 288 288 288 288 288 288 288 288 288 288 288
289 289 289 289 289 289 289 288 288 288 288 288 288 288 288 288 288 287 287 286 286 285 285 284 284 284 284 284 284 285 286 286 287 287 287 288 288 287 287 287 287 288 288 288 288 288 288 288 288 288 288 289 289 289 289 288 288 288 288 288 288 288 288 288 288 288 288 288 288 288 288 288 288 288 288 288 288 288 288 288 288 288 288 288 288 288
289 289 289 289 289 288 288 288 288 288 288 287 287 287 287 287 286 286 286 285 285 285 284 284 284 284 284 283 284 285 286 286 287 287 287 288 288 287 287 287 287 288 288 288 288 288 288 288 288 288 288 289 289 289 288 288 288 288 288 288 288 288 288 288 288 288 288 288 288 288 288 288 288 288 288 288 288 288 288 288 288 288 288 288 288 288
289 289 289 289 288 288 288 288 287 287 287 287 286 286 286 286 286 285 285 285 285 284 284 284 284 284 283 283 284 285 286 286 286 286 287 287 288 288 287 287 287 288 288 288 288 288 288 288 288 288 288 288 288 288 288 288 288 288 288 288 288 288 288 288 288 288 288 288 288 288 288 288 288 288 288 288 288 288 288 288 288 288 288 288 288 288
289 289 289 288 288 288 287 287 287 287 286 286 286 286 286 286 285 285 285 285 285 284 284 284 284 283 283 283 284 285 286 286 286 286 286 287 288 288 287 287 287 288 288 288 288 288 288 288 288 288 288 288 288 288 288 288 288 288 288 288 288 288 288 288 288 288 288 289 289 289 288 288 288 288 288 288 288 288 288 288 288 288 288 288 288 288
288 288 288 288 287 287 287 287 287 287 286 286 286 286 286 285 285 285 285 285 284 284 284 284 283 283 282 283 285 285 285 285 285 285 285 286 287 287 287 287 287 287 288 288 288 288 288 288 288 288 288 288 288 288 288 288 288 288 288 288 288 288 288 288 288 288 289 289 289 289 289 289 288 288 288 288 288 288 288 288 288 288 288 288 288 288
287 287 287 287 287 286 286 286 286 286 286 286 286 285 285 285 285 285 285 284 284 283 283 283 282 282 283 284 285 285 285 285 284 285 285 285 286 287 286 286 287 287 288 288 288 288 288 288 288 288 288 288 288 288 288 289 289 289 289 288 288 288 288 288 289 289 289 289 289 289 289 289 289 289 288 288 288 288 288 288 288 288 288 288 287 287
285 285 285 285 285 285 285 285 285 285 285 285 284 284 284 284 284 284 283 283 283 283 282 282 282 282 283 284 284 284 285 285 285 285 285 285 286 286 286 286 286 287 288 288 288 288 288 289 289 289 288 288 289 289 289 289 289 289 289 289 288 288 289 289 289 289 289 289 289 289 289 289 289 289 288 288 288 288 288 288 288 287 287 287 287 287
285 285 285 285 284 284 284 284 283 283 283 283 283 283 283 283 283 283 283 282 282 282 282 282 283 283 284 284 285 285 285 285 285 285 285 285 285 286 286 286 286 287 288 288 288 288 288 289 289 289 289 289 289 289 289 289 289 289 289 289 289 289 289 289 289 289 289 289 289 289 289 289 289 288 288 288 288 288 288 288 287 287 287 287 287 287
285 285 285 284 284 284 283 283 283 282 283 283 283 283 283 283 283 283 283 283 283 283 283 284 284 284 285 285 285 285 285 285 285 285 285 285 285 286 287 286 286 287 288 288 288 288 289 289 289 289 289 289 289 289 289 289 289 289 289 289 289 289 289 289 289 289 289 289 289 289 288 288 288 288 288 288 288 288 288 287 287 287 287 287 287 287
285 285 284 284 283 283 283 282 282 282 282 283 283 283 283 283 283 283 283 283 284 284 284 284 284 284 284 284 284 285 285 285 285 285 285 285 286 286 287 287 286 287 288 288 289 289 289 289 290 290 289 289 289 289 289 289 289 289 289 289 289 289 289 289 289 289 289 289 289 288 288 288 288 288 288 288 288 287 287 287 287 287 287 287 287 287
284 284 283 283 283 282 282 282 282 282 282 282 282 283 283 283 283 283 283 283 284 284 283 283 284 284 284 284 284 284 285 285 285 285 285 285 286 286 286 286 286 287 287 288 289 289 289 289 289 290 290 289 289 289 289 289 290 289 289 289 289 289 289 289 289 289 289 289 289 288 288 288 288 288 288 287 287 287 287 287 287 287 287 286 286 286
284 283 283 282 282 282 282 282 282 281 281 282 282 282 283 283 283 283 283 284 284 283 284 284 284 284 284 284 284 285 285 285 285 285 285 285 286 286 286 286 286 287 287 288 289 289 290 289 289 289 289 290 289 289 289 289 290 289 289 289 289 289 289 289 289 289 289 289 289 288 288 288 288 287 287 287 287 287 287 287 287 286 286 286 286 286
283 282 282 282 282 282 282 282 281 281 281 282 282 282 283 283 283 284 284 284 284 284 284 284 284 284 284 284 284 284 285 285 285 285 285 285 286 286 286 286 286 286 287 287 288 289 290 290 289 289 289 289 289 290 290 290 290 290 290 290 290 290 290 290 289 289 289 289 289 288 288 288 287 287 287 287 287 287 287 286 286 286 286 286 286 286
282 282 281 281 281 281 281 281 281 281 282 282 283 283 284 284 284 284 284 284 284 284 284 284 284 284 284 284 284 284 284 285 285 285 285 285 286 286 286 286 286 287 286 286 286 287 288 290 290 289 289 289 290 290 290 290 290 290 290 290 290 290 290 290 289 289 289 289 289 288 288 288 287 287 287 287 286 286 286 286 286 286 286 286 286 286
281 281 281 281 281 281 281 281 281 282 282 283 283 284 284 284 284 284 284 284 284 284 284 284 284 284 284 284 284 284 285 285 285 285 285 285 286 286 286 286 287 287 287 286 286 285 286 288 290 290 290 290 290 290 290 290 290 290 290 290 290 290 290 290 289 289 289 289 289 289 288 288 287 287 287 287 286 286 286 286 286 286 286 286 286 286
281 281 281 281 281 281 281 282 282 282 283 284 284 284 284 284 284 284 284 284 284 284 284 284 284 284 285 285 285 285 286 286 286 285 285 285 286 286 286 286 287 287 287 287 286 286 285 287 288 290 290 290 290 290 290 290 290 290 290 290 290 290 290 289 289 289 289 289 289 289 288 288 287 287 287 287 287 286 286 286 286 286 285 285 285 284
281 281 281 281 281 281 281 282 283 283 284 284 284 285 285 285 285 285 285 285 285 285 285 285 284 285 285 285 285 286 286 286 286 286 285 285 286 286 286 286 286 287 287 287 287 286 286 287 287 288 289 290 290 290 290 290 290 290 290 290 290 290 290 289 289 289 289 289 289 289 288 288 288 287 287 287 287 286 286 286 286 286 285 285 284 284
281 281 281 281 281 281 282 282 283 284 284 284 285 285 285 285 285 285 285 285 285 285 285 285 285 285 285 285 285 286 286 286 286 286 286 286 286 286 286 287 287 286 286 287 287 286 286 287 287 287 288 289 290 290 290 290 289 289 289 289 289 289 289 289 289 289 289 289 289 289 288 288 288 287 287 287 286 286 286 286 286 286 285 285 285 284
281 281 281 281 281 282 282 283 283 284 284 284 285 285 285 285 285 285 285 285 285 285 285 285 285 285 285 285 285 286 286 286 286 286 286 286 286 286 286 287 287 287 286 286 286 286 286 287 287 287 287 287 288 290 290 289 289 289 289 289 289 289 289 289 289 289 289 289 289 288 288 288 287 287 287 286 286 286 286 286 286 285 285 285 285 285
281 281 281 281 281 282 282 283 283 284 284 285 285 285 285 285 285 285 285 285 285 285 285 285 285 285 285 286 286 286 287 287 287 287 286 286 286 286 286 287 287 287 286 286 286 286 286 286 286 286 286 286 286 288 289 289 289 289 289 289 289 289 289 289 288 288 288 288 288 288 288 287 287 287 286 286 286 286 286 285 285 285 285 285 285 285
281 281 281 281 281 282 283 283 284 284 285 285 285 285 285 285 285 285 285 285 285 285 285 285 285 285 285 286 286 286 287 287 287 287 286 286 286 286 286 287 287 287 286 286 286 285 285 285 284 285 285 286 286 286 287 288 288 288 289 289 289 289 289 289 288 288 288 288 288 288 287 287 287 286 286 286 286 286 285 285 286 285 285 285 285 285
281 281 281 281 282 283 283 284 284 285 285 285 285 285 285 285 285 285 285 285 285 285 285 285 285 286 286 286 286 286 287 287 286 286 286 286 286 286 286 287 287 287 286 286 285 285 284 284 284 284 284 285 285 286 286 286 287 287 288 288 289 289 288 288 288 287 287 287 287 287 287 287 286 286 286 286 285 285 285 285 285 285 285 285 285 285
281 281 281 282 283 283 284 284 285 285 285 285 285 285 285 285 285 285 285 285 285 285 285 285 286 286 286 286 287 287 287 287 287 287 287 286 286 286 286 286 286 286 286 286 285 284 284 284 283 283 283 283 284 285 285 286 286 286 286 286 287 288 288 287 287 287 287 287 287 287 286 286 286 285 285 285 285 285 285 285 285 285 285 285 285 285
281 281 282 283 283 284 284 285 285 285 285 285 285 285 285 285 285 285 285 285 285 286 286 286 286 287 287 287 287 287 287 287 287 287 287 287 286 286 286 286 286 286 286 285 285 284 284 284 284 284 284 283 283 284 284 285 285 285 285 285 285 286 287 287 287 287 286 286 286 286 286 285 285 285 285 285 285 285 284 284 284 285 285 284 284 284
281 282 282 283 284 284 285 285 285 285 285 285 285 285 285 285 285 285 285 286 286 286 286 286 287 287 287 288 288 288 288 287 287 287 287 287 287 286 286 286 286 286 286 285 285 285 285 284 284 284 284 284 283 283 284 285 285 285 284 284 285 285 286 286 286 286 286 286 286 285 285 285 285 285 284 284 284 285 285 284 284 284 284 284 284 284
282 282 283 284 284 285 285 285 285 285 285 285 285 285 285 285 285 285 286 286 286 286 286 286 287 287 288 288 288 288 288 288 287 287 287 287 287 286 286 286 286 286 285 285 285 285 285 284 284 284 284 283 283 283 283 284 284 285 284 284 284 284 284 285 286 286 285 285 285 285 285 285 284 284 284 284 284 284 284 284 284 284 284 284 284 284
282 283 284 284 285 285 285 285 285 285 285 285 286 285 285 285 285 285 285 286 286 286 286 286 287 287 288 288 288 289 288 288 288 287 287 287 287 286 286 286 286 285 285 284 284 284 284 284 284 284 283 283 282 282 283 283 283 284 284 284 284 283 283 284 285 285 285 285 285 285 284 284 284 284 284 284 284 284 284 284 284 284 284 284 284 284
283 283 284 284 285 285 285 285 285 285 286 286 286 285 285 285 285 285 285 286 286 286 286 286 286 287 287 288 288 288 288 288 288 287 287 287 286 286 286 286 285 285 284 284 284 284 283 284 284 284 283 283 282 282 282 283 283 284 284 284 284 284 284 284 284 284 284 284 285 284 284 284 283 283 284 284 284 284 284 283 283 283 283 283 284 284
283 284 284 285 285 285 285 285 285 285 286 286 285 285 285 285 285 285 285 285 286 286 286 286 286 286 286 287 287 288 288 288 288 288 287 287 286 286 286 285 285 285 285 284 284 283 283 283 283 283 283 282 282 282 283 283 283 283 284 284 284 283 284 284 284 284 284 284 284 284 284 283 283 283 283 283 284 284 283 283 283 283 283 283 283 283
284 284 285 285 285 285 285 285 285 286 286 285 285 285 285 285 285 285 285 285 285 286 286 286 286 286 286 286 287 287 287 288 288 288 288 287 287 286 286 286 285 285 285 284 284 284 283 283 283 283 282 282 282 283 283 283 283 283 283 283 283 283 283 283 284 284 284 284 284 284 283 283 283 283 283 283 283 283 283 283 283 283 283 283 283 283
284 285 285 285 285 285 286 286 286 285 285 285 285 285 285 284 284 285 285 285 285 285 286 286 285 285 286 286 286 286 286 287 287 288 288 287 287 287 286 286 285 285 285 284 284 284 284 283 283 283 282 282 282 283 283 284 284 283 283 283 283 283 283 283 284 284 283 283 283 283 283 283 283 283 283 283 283 283 283 283 283 283 283 284 284 284
284 285 285 285 285 285 286 285 285 285 285 285 285 285 284 284 284 284 284 284 285 285 284 284 284 285 285 286 286 286 286 286 287 287 288 287 287 286 286 286 285 285 284 284 284 283 283 283 283 283 282 282 282 283 283 284 284 283 283 282 282 282 283 283 283 283 283 283 283 283 283 283 283 284 284 284 284 284 283 283 283 284 284 284 285 285
284 285 285 285 285 285 285 285 285 285 284 284 284 284 284 284 284 284 284 284 284 285 284 284 284 284 285 285 285 285 285 286 286 287 287 287 286 285 285 285 284 284 283 283 283 282 282 282 282 283 283 283 283 283 283 283 283 283 282 282 282 282 282 283 283 283 283 283 283 283 283 284 284 283 283 283 283 283 283 283 283 284 285 285 285 285
285 285 285 285 285 285 285 285 284 284 284 284 284 284 284 284 284 284 284 284 284 284 284 284 284 283 284 284 285 285 285 285 285 286 286 286 285 284 284 283 283 282 282 282 281 281 281 281 281 282 283 283 283 283 283 283 283 283 282 282 282 282 283 283 283 283 283 283 283 283 283 283 283 283 283 282 282 282 282 283 283 284 285 285 285 285
Wind_Speed
21 20 20 19 19 19 21 22 23 23 23 22 22 21 21 21 20 20 19 19 19 19 19 19 19 19 19 19 19 19 18 18 19 19 19 19 19 19 18 18 18 18 17 17 17 17 17 16 17 17 17 17 17 17 18 18 18 18 18 18 18 18 17 17 16 16 16 17 18 18 19 19 19 19 18 18 18 18 17 17 17 17 17 18 18 18
21 20 18 17 17 17 18 19 20 20 21 20 20 19 19 18 18 18 17 18 18 18 19 19 19 19 19 19 18 17 17 17 17 17 17 17 17 17 16 16 16 16 16 16 16 16 16 16 16 16 17 17 17 17 17 18 18 18 17 17 17 17 17 17 17 17 17 18 18 18 19 19 18 18 18 18 18 17 17 17 17 17 17 18 18 18
21 19 18 16 15 15 15 16 16 17 17 17 17 16 16 16 16 16 17 17 17 18 18 18 18 17 17 17 16 16 15 15 15 15 15 15 15 15 15 15 15 15 15 15 15 15 15 15 15 16 16 16 16 16 17 17 17 16 16 16 16 16 17 17 17 17 18 18 18 18 18 18 18 18 18 17 17 17 17 18 18 18 18 19 19 19
19 18 17 15 14 13 13 13 13 13 14 14 14 14 14 15 15 16 16 17 17 17 16 16 15 15 14 14 14 13 13 13 13 13 13 14 14 14 14 14 14 14 14 14 14 14 14 15 15 15 15 15 15 15 15 15 15 15 16 16 16 16 16 17 17 17 18 18 18 18 18 18 18 18 17 17 17 17 18 18 18 19 19 20 20 20
17 16 15 14 13 12 12 11 11 11 12 12 12 13 13 14 15 16 16 17 16 15 14 13 13 12 12 12 12 12 12 12 12 13 13 13 14 14 14 14 14 14 14 14 14 14 14 14 13 13 13 13 13 13 13 14 14 15 15 16 16 16 17 17 17 18 18 19 19 19 18 18 18 18 17 17 17 18 18 18 19 19 20 20 21 21
15 14 13 12 11 11 11 11 10 10 11 11 12 13 13 14 15 16 16 15 15 13 12 11 11 11 11 12 12 12 12 12 13 13 13 13 14 14 14 15 15 14 14 14 13 13 12 12 12 12 11 12 12 13 13 13 14 14 15 15 16 16 17 17 17 18 18 19 19 19 19 18 18 18 18 18 18 19 19 19 20 20 21 21 21 22
13 13 12 11 11 11 10 10 11 11 11 12 12 13 14 15 15 15 15 14 13 12 11 10 10 11 11 12 12 13 13 13 13 13 13 14 14 14 14 14 14 13 13 12 11 11 10 10 10 10 11 11 12 13 13 14 14 15 15 16 16 17 17 17 18 18 19 19 19 19 19 19 19 19 19 20 20 20 20 21 21 21 22 22 22 22
12 11 11 10 10 11 11 11 12 12 12 13 13 13 14 14 13 13 13 12 11 10 10 10 10 11 11 12 13 13 14 14 13 14 14 14 14 14 14 13 13 12 11 10 10 9 9 9 10 10 11 12 13 14 14 15 16 16 17 17 17 18 18 18 18 19 19 19 20 20 20 20 20 21 21 21 21 22 22 22 23 23 23 23 23 23
11 10 10 10 10 10 11 11 12 12 12 12 12 12 12 12 11 11 10 9 9 9 10 10 11 11 12 13 14 14 14 14 14 14 15 15 14 14 13 12 11 10 10 9 9 9 9 10 10 11 12 13 14 14 15 16 16 17 17 17 17 17 18 18 18 18 19 19 20 20 20 21 21 22 22 23 23 23 23 24 24 24 24 24 24 24
10 10 10 10 11 11 11 11 11 11 11 11 11 11 10 10 9 9 9 9 9 9 10 11 12 13 13 14 15 15 14 14 14 14 15 14 14 12 11 10 10 10 9 9 9 9 10 10 11 11 12 13 13 14 14 15 15 15 16 16 16 16 16 17 17 18 18 19 19 20 20 21 22 22 23 23 23 24 24 24 25 25 25 25 25 24
10 10 10 10 11 11 10 9 8 8 8 8 8 9 8 8 8 9 9 9 9 10 11 12 13 14 15 16 16 15 14 14 14 14 14 13 12 11 10 9 9 9 9 9 9 9 9 9 10 10 11 11 12 12 12 13 13 13 14 14 14 15 15 16 16 17 17 18 19 19 20 20 21 22 22 23 23 23 24 24 24 24 25 25 24 24
10 10 10 9 9 8 7 6 6 6 5 6 7 8 8 8 8 9 10 11 11 11 12 13 15 15 16 17 17 16 16 15 15 14 12 11 10 9 9 9 9 9 9 9 9 8 8 9 9 9 9 10 10 10 10 11 11 12 12 13 13 14 14 15 15 16 16 17 17 18 19 19 20 20 21 22 22 22 22 23 23 23 23 23 23 23
9 9 8 7 6 5 4 3 3 4 5 6 7 8 8 8 9 10 11 12 13 13 14 15 16 17 17 17 17 17 17 16 15 13 11 9 8 8 8 8 8 9 9 8 8 8 8 8 8 8 8 8 8 8 9 9 10 10 11 11 12 12 13 13 14 14 15 16 16 17 17 18 18 19 20 20 21 21 21 22 22 22 22 23 23 23
7 6 5 4 4 3 2 2 3 4 5 6 7 7 8 9 10 11 12 13 14 15 16 17 18 19 19 18 18 17 17 16 15 12 10 8 7 7 8 8 8 8 8 8 7 7 7 7 7 7 7 7 7 7 8 8 9 9 10 10 11 11 11 12 13 13 14 15 15 16 17 17 18 18 19 20 20 21 21 21 22 22 22 23 23 23
4 4 3 3 3 3 3 3 4 5 6 6 8 9 10 11 12 12 13 14 15 17 18 19 20 20 19 19 18 17 15 14 13 11 9 7 6 7 8 9 9 8 8 7 6 6 6 6 6 6 6 6 6 7 7 8 8 8 9 9 9 10 11 11 12 13 14 15 15 16 17 18 18 19 19 20 21 21 22 22 22 22 23 23 23 23
3 3 3 3 3 4 5 5 6 7 7 8 9 10 11 12 13 14 15 16 18 19 20 20 21 20 19 17 16 14 13 12 11 10 9 7 5 6 8 9 9 7 6 6 5 5 6 6 6 6 6 6 6 6 7 8 8 8 9 9 9 10 11 12 13 14 14 15 16 17 18 18 19 20 20 21 21 22 22 22 23 23 23 23 24 24
3 4 4 5 6 6 7 8 9 9 10 11 12 12 13 14 15 16 17 18 19 20 20 20 21 21 20 17 14 11 11 11 10 10 9 7 5 5 7 8 8 6 5 4 5 5 5 6 6 6 6 6 6 7 7 8 9 9 10 10 10 11 12 13 13 14 15 16 17 18 19 19 20 20 21 21 22 22 22 23 23 23 23 24 24 24
5 6 7 8 8 9 10 11 11 12 13 13 14 15 16 17 17 18 19 19 19 19 19 20 20 21 22 21 16 10 8 9 10 10 10 8 6 4 5 7 7 6 5 4 4 5 6 6 6 7 6 6 7 7 9 10 11 11 11 12 12 12 13 13 14 15 16 17 18 19 19 20 21 21 22 22 22 23 23 23 23 23 23 23 24 24
8 8 9 10 11 11 12 13 13 14 14 15 16 17 17 18 18 18 18 18 18 18 19 20 20 21 22 22 17 10 7 9 11 11 11 10 6 4 4 6 6 6 5 4 4 5 6 7 7 7 7 7 8 9 10 11 12 12 12 13 13 13 14 14 15 16 16 17 18 19 20 20 21 22 22 22 23 23 23 23 23 23 23 23 23 24
10 10 11 12 12 13 13 14 14 14 15 16 16 16 17 17 17 17 17 17 17 18 19 20 21 22 22 22 17 11 7 9 11 13 14 12 8 5 6 7 7 6 5 4 4 5 6 7 7 7 8 8 9 10 11 12 13 13 13 13 13 13 14 14 15 16 16 17 18 19 19 20 21 21 21 22 22 22 22 23 23 23 23 23 23 24
11 12 13 13 14 14 14 14 15 15 15 16 16 17 17 18 18 18 18 18 19 19 20 21 22 22 22 21 17 12 8 10 14 16 17 15 11 9 8 10 10 9 7 6 6 6 7 7 8 8 9 10 11 12 13 13 13 13 13 13 13 14 14 15 15 16 16 17 18 18 19 20 21 21 22 22 22 22 22 23 23 23 23 24 24 24
14 14 15 16 16 16 16 17 17 17 17 17 18 18 18 19 19 20 20 20 21 21 22 22 22 22 21 20 15 10 9 12 15 17 18 19 16 13 11 12 13 12 11 10 9 9 9 9 9 10 11 12 12 13 13 13 13 13 13 13 13 14 15 15 16 16 17 17 18 19 20 21 22 22 23 23 23 24 24 24 24 24 24 24 25 25
16 16 17 17 17 17 17 18 18 18 19 19 19 20 20 21 21 21 22 22 22 22 22 22 21 20 18 16 12 10 11 12 14 16 18 20 20 17 14 15 15 15 14 12 11 11 11 11 11 12 12 13 14 14 14 13 13 12 12 13 13 14 15 15 16 16 17 17 18 19 20 21 22 23 23 24 24 24 24 24 24 24 24 24 24 25
15 15 16 16 16 16 16 17 18 18 19 19 20 20 21 21 22 22 23 22 22 22 22 21 20 19 16 14 13 12 11 11 12 14 16 20 21 19 17 16 17 16 15 13 13 13 13 13 13 13 13 14 14 14 13 13 12 12 12 13 14 14 15 15 15 16 16 17 18 19 20 20 21 22 23 23 23 24 24 24 24 23 23 23 24 24
14 14 14 14 14 14 15 16 16 17 18 18 19 19 20 20 21 21 21 21 20 20 20 19 19 17 15 14 14 13 11 10 11 13 16 19 21 20 17 17 17 17 16 15 14 15 15 15 14 14 14 14 14 13 13 12 12 12 13 13 14 14 14 14 14 15 16 16 17 18 19 20 21 21 22 22 23 23 23 23 23 23 22 23 23 24
13 12 12 12 13 13 14 15 16 16 16 17 17 17 18 19 19 20 19 18 17 16 16 16 16 16 15 15 16 15 13 12 13 14 16 18 20 20 17 16 17 18 18 17 17 17 17 16 15 14 14 14 14 13 13 12 12 13 14 14 14 14 14 14 14 14 15 16 17 17 18 19 20 21 21 22 22 23 23 23 23 22 22 22 23 24
12 12 12 12 13 14 14 15 15 15 15 15 15 16 17 17 18 18 17 16 14 14 14 15 17 17 17 18 18 17 15 14 14 14 15 16 18 19 17 17 18 19 20 20 19 19 19 18 16 15 15 14 14 14 13 14 14 15 15 15 15 15 14 14 14 14 14 15 16 17 18 19 20 20 21 21 22 23 23 23 22 22 22 23 24 26
12 12 12 13 13 14 14 14 14 14 14 14 15 15 15 16 16 17 17 15 14 15 16 17 18 19 19 19 19 18 17 16 14 13 13 15 17 18 18 18 19 21 22 22 21 19 19 19 18 17 16 15 15 15 16 16 17 17 17 17 16 15 14 14 14 14 14 15 16 17 17 18 19 19 20 21 21 22 22 22 22 22 23 23 25 27
13 13 13 14 14 15 15 14 14 13 13 13 13 14 15 15 16 16 15 14 14 16 17 17 18 18 19 19 19 19 18 15 13 12 13 14 16 18 19 20 21 22 23 24 23 21 20 19 18 17 17 17 17 18 18 19 19 19 19 18 17 16 15 15 14 15 15 15 16 16 17 17 18 18 18 19 20 20 21 21 21 22 23 24 25 27
14 14 15 15 16 16 16 15 14 13 12 12 12 12 13 13 14 14 13 12 13 15 16 16 16 16 17 18 20 20 18 14 12 13 14 16 18 20 20 21 21 21 22 23 25 25 23 20 18 18 18 19 19 20 21 21 21 20 20 19 18 17 16 16 16 16 16 16 16 16 16 16 16 16 17 17 18 18 19 19 20 21 22 24 25 26
14 15 15 16 16 16 16 15 14 13 12 11 11 11 11 11 11 11 11 11 12 13 14 14 15 15 16 17 19 20 18 15 14 15 16 17 19 21 21 22 21 21 21 22 23 25 27 24 21 19 20 21 22 22 22 22 22 22 21 20 19 19 18 18 17 17 17 17 17 16 16 15 15 15 15 16 16 17 17 18 18 19 21 22 23 24
13 14 14 14 15 15 15 14 13 12 11 10 10 10 10 10 10 10 10 11 11 12 13 14 15 15 16 17 19 20 19 17 16 17 18 19 20 21 21 22 22 21 21 21 21 22 25 27 26 24 23 24 24 23 23 23 23 23 23 22 21 21 20 19 19 19 18 18 17 16 16 15 15 14 15 15 15 16 16 16 17 18 19 20 21 22
12 13 13 13 13 13 12 12 11 11 10 9 9 9 9 9 10 10 10 11 11 12 13 14 15 16 17 18 19 20 20 19 18 18 18 19 21 22 22 22 23 22 21 21 21 21 23 26 28 28 27 26 25 25 24 24 24 24 24 24 23 22 21 21 20 20 19 18 17 17 16 15 15 14 14 14 15 15 15 16 16 16 17 18 19 20
12 12 12 12 12 11 11 10 10 9 9 9 9 9 10 10 10 11 11 11 12 13 14 15 16 17 18 19 19 20 20 19 18 18 19 20 21 22 22 22 22 22 22 22 22 22 24 26 27 29 29 28 27 26 26 26 26 25 25 25 24 24 23 22 21 20 19 18 18 17 16 15 15 15 15 15 15 15 15 15 15 15 15 16 17 19
13 12 12 12 11 10 10 10 9 9 9 9 9 10 10 11 11 11 12 12 13 13 14 15 16 17 18 19 20 21 21 19 18 19 19 20 21 21 22 21 21 21 21 22 22 23 25 26 27 29 30 31 30 28 27 27 26 26 26 25 25 25 24 22 21 20 19 19 18 17 16 16 16 16 16 15 15 15 14 14 13 13 13 13 14 16
14 13 12 12 11 10 10 10 10 10 10 10 10 10 11 11 11 12 12 13 14 15 15 16 17 17 18 19 20 21 21 19 18 18 18 18 19 20 20 20 20 20 20 21 22 23 25 26 27 29 30 32 32 32 30 28 27 27 26 25 25 24 23 22 21 20 20 19 18 17 17 17 17 17 17 16 16 15 14 13 13 12 12 11 12 13
14 13 13 12 11 10 10 10 11 11 11 10 10 10 11 11 12 12 13 14 15 15 16 17 17 18 19 19 19 20 19 18 17 17 17 17 18 18 19 19 19 19 20 20 21 23 24 26 28 29 30 31 32 32 32 30 29 28 27 26 25 23 22 21 20 20 20 20 19 18 18 18 18 18 18 17 17 16 15 14 13 12 12 12 12 12
14 14 13 12 11 11 11 11 11 11 11 11 11 11 11 12 12 13 14 14 15 16 17 17 18 18 19 19 19 18 18 17 16 16 16 16 17 18 18 19 19 20 20 20 21 22 23 25 27 29 30 31 31 31 31 31 30 29 27 26 25 24 23 22 21 21 21 21 20 20 19 20 20 20 19 19 18 17 16 15 14 13 12 13 13 13
15 14 13 12 11 11 10 10 11 11 11 11 11 11 12 12 13 13 14 15 16 16 17 18 18 18 18 18 18 17 17 16 16 15 15 16 17 17 18 18 19 20 20 20 21 21 22 23 25 27 29 30 31 31 30 30 29 29 28 27 26 25 24 23 23 22 22 22 22 22 21 21 21 21 21 20 20 19 19 18 16 15 14 15 15 15
14 14 12 11 11 10 10 10 11 11 11 11 11 12 12 13 13 14 15 16 16 17 17 18 18 18 17 17 17 16 16 15 15 15 15 15 16 17 17 18 19 19 20 20 20 21 21 22 24 25 27 28 30 30 30 29 29 29 29 29 30 28 26 25 25 24 23 23 23 23 23 23 22 22 22 21 21 21 21 20 19 18 17 18 18 19
14 13 12 11 10 10 10 10 10 11 11 11 12 12 13 13 14 15 15 16 16 17 17 17 17 17 17 17 17 16 16 15 15 15 15 15 15 16 16 17 18 18 19 19 20 20 20 21 22 24 25 26 28 29 30 30 29 28 29 30 31 31 29 28 26 25 25 24 24 24 24 24 23 23 23 23 23 22 22 21 21 20 20 19 20 21
13 12 11 10 10 10 10 10 10 11 11 12 12 12 13 14 15 15 16 16 16 17 17 17 17 18 18 17 17 16 16 15 15 14 14 14 14 14 15 16 16 17 17 18 18 19 20 20 22 23 24 25 27 28 30 30 30 29 29 30 31 32 31 30 28 26 26 26 25 24 24 24 24 24 24 24 24 23 23 23 23 23 22 22 21 21
12 11 11 10 10 10 10 10 11 11 11 12 12 13 14 15 16 16 17 17 17 17 17 18 18 18 18 18 17 17 16 15 14 13 13 13 13 13 13 14 14 15 15 16 18 19 20 21 21 22 23 24 25 28 30 31 31 30 30 30 30 32 33 32 29 27 27 26 26 25 24 24 24 25 25 25 25 25 25 25 25 25 24 24 24 23
11 11 10 10 10 10 11 11 11 11 11 12 12 13 14 15 16 17 17 17 17 17 17 18 18 18 17 17 17 17 16 15 14 13 12 11 11 11 12 12 13 14 15 15 17 18 20 21 22 22 23 23 25 27 30 31 32 32 31 30 29 30 31 31 30 29 28 27 26 25 24 24 25 26 27 27 27 27 27 28 28 27 27 26 26 25
11 11 10 11 11 11 11 11 11 11 12 13 13 14 15 16 16 17 17 17 17 17 17 17 17 17 17 17 17 17 16 15 14 12 11 10 10 10 10 11 12 13 14 15 16 18 19 21 22 23 23 24 26 28 29 31 32 32 32 30 29 29 30 29 29 28 28 28 27 26 25 25 26 27 29 30 30 30 30 30 30 29 28 28 27 27
11 11 11 11 11 11 11 11 11 12 12 13 14 15 15 16 16 16 17 16 16 16 16 17 16 16 17 17 16 16 15 14 13 12 10 9 9 9 10 10 11 12 14 15 17 18 19 21 22 24 25 26 27 29 30 30 31 32 32 30 29 29 29 29 28 28 28 28 28 27 26 26 27 29 30 31 32 32 32 31 30 29 29 28 28 27
11 11 11 11 11 11 11 11 12 12 13 14 15 15 16 16 16 16 16 16 15 15 15 16 15 15 16 15 15 15 14 14 13 11 11 10 10 10 11 12 13 14 15 17 18 20 21 22 23 24 25 26 29 30 30 29 29 30 30 29 28 29 29 29 28 28 28 28 28 28 28 28 28 29 31 32 33 33 33 32 30 29 28 28 28 27
11 11 11 11 11 11 11 11 12 13 14 15 15 16 16 16 16 15 15 15 15 15 14 14 14 14 14 14 13 13 13 13 12 12 12 12 12 13 14 15 16 17 19 20 21 22 23 24 24 24 24 25 28 29 30 28 27 27 27 27 27 28 29 30 29 28 28 29 29 29 29 29 29 30 31 33 33 34 33 33 31 29 28 27 26 25
10 10 10 10 10 10 10 11 12 13 15 16 16 16 16 16 15 14 14 14 14 14 14 13 13 14 14 13 13 12 12 13 13 13 13 14 15 16 17 18 19 20 22 23 23 24 25 25 25 25 24 23 25 26 27 27 26 26 26 26 27 28 29 30 30 29 29 29 29 29 29 29 30 30 31 32 33 34 34 34 32 30 27 25 23 22
10 10 10 10 10 10 11 12 13 14 15 16 17 17 16 16 15 14 14 14 14 13 13 13 13 13 14 14 13 13 13 14 14 14 15 16 17 18 19 20 21 22 23 24 24 25 25 26 26 25 23 21 21 22 24 25 25 25 25 26 27 27 28 29 29 29 29 29 29 29 29 29 30 31 31 32 33 34 35 34 32 29 26 23 22 22
10 10 10 10 10 11 12 13 14 15 15 16 16 16 16 16 15 15 14 14 14 13 13 13 13 13 14 14 14 14 14 15 15 16 16 17 18 19 20 21 22 22 23 24 24 25 25 25 25 24 23 20 18 18 20 22 23 25 26 26 26 26 27 28 28 28 28 28 29 29 30 30 31 31 31 32 33 33 33 33 31 28 26 23 23 23
Wind_Direction
263 264 264 261 258 255 254 254 254 255 256 257 257 257 257 257 257 257 257 257 257 258 260 263 265 267 269 270 273 275 278 281 282 282 281 280 279 279 278 278 278 278 278 278 279 280 281 282 283 284 284 284 284 283 282 282 281 281 281 281 281 280 279 278 275 273 271 270 269 269 269 270 269 269 270 271 270 270 272 273 274 275 276 275 275 274
263 265 264 261 258 255 254 254 254 254 254 255 254 254 253 254 254 255 256 257 259 261 264 267 270 272 274 276 279 281 283 282 281 279 278 277 277 276 276 276 276 277 277 278 279 280 281 282 283 284 284 285 284 284 284 284 284 285 285 285 285 284 282 280 278 275 273 272 272 272 273 273 273 272 272 273 273 273 273 274 275 276 277 276 275 274
263 263 262 260 257 254 253 252 251 250 250 249 248 247 247 248 249 252 254 258 261 265 269 272 275 278 282 285 287 286 284 280 277 276 275 276 276 276 275 275 275 276 276 277 278 279 280 281 282 283 284 285 286 287 287 288 289 289 289 289 288 288 287 285 283 281 280 279 279 279 279 279 279 279 280 281 280 279 277 275 275 275 275 273 272 272
262 261 259 258 256 253 251 249 246 244 242 241 240 241 243 244 247 251 255 259 264 268 273 277 283 289 293 293 290 285 280 276 275 276 278 279 278 277 275 274 273 273 273 274 275 276 278 279 281 282 284 285 286 288 290 292 293 293 292 291 290 290 289 289 288 287 287 286 286 285 285 286 286 287 287 287 286 284 281 278 276 274 272 272 271 271
261 258 256 255 252 249 248 245 241 238 237 236 237 240 244 247 251 255 258 262 267 273 280 288 294 297 295 290 283 278 275 276 279 281 283 283 281 279 276 273 272 271 271 272 273 275 276 278 280 281 283 285 287 289 290 292 293 293 292 292 291 290 290 290 290 290 290 290 290 289 290 290 291 291 290 288 287 284 282 280 277 275 273 272 271 271
258 255 253 251 248 245 245 243 242 240 239 241 244 247 251 254 258 261 265 271 277 285 294 299 298 293 286 280 276 275 277 280 284 287 287 287 284 280 277 274 272 271 271 272 273 274 276 277 280 282 284 287 289 290 290 290 289 288 287 286 286 285 285 286 287 287 288 288 289 290 291 292 292 291 289 287 285 283 281 279 278 276 274 273 273 272
257 254 253 250 249 248 247 247 248 249 250 252 255 259 262 265 268 273 278 285 292 298 299 294 287 281 277 276 277 279 282 286 289 291 291 289 285 282 278 275 273 271 271 271 272 273 275 277 281 283 285 286 286 285 284 283 281 279 278 278 277 277 277 279 280 282 283 285 288 290 291 291 290 289 287 286 284 283 281 279 278 277 276 275 274 274
253 252 252 249 249 251 252 254 257 259 260 261 264 268 273 278 283 289 294 298 300 297 290 282 277 276 277 279 282 285 288 292 295 296 293 289 285 281 277 274 271 269 267 266 267 270 273 276 278 279 279 278 277 276 276 275 274 274 274 275 275 277 278 279 281 283 284 286 288 289 289 289 288 287 286 285 284 283 282 281 279 278 278 277 276 276
250 251 251 250 250 253 257 261 263 265 267 270 274 279 286 293 298 301 301 299 294 287 281 279 278 279 281 283 286 289 293 296 298 297 294 289 284 280 275 271 268 265 262 261 262 265 268 270 271 271 272 272 272 272 273 274 275 275 276 278 279 281 282 283 284 285 285 286 286 287 286 286 286 285 285 284 284 283 282 282 281 281 280 279 278 277
251 252 254 256 257 259 262 266 270 273 277 281 286 290 295 300 302 300 295 287 281 277 277 278 280 283 286 287 289 292 296 298 297 295 291 287 282 278 273 270 267 265 263 263 263 264 266 267 268 270 271 272 273 274 275 276 277 278 279 281 282 282 283 283 283 283 283 283 283 283 283 284 283 283 283 283 283 283 283 283 282 282 281 281 280 279
255 257 259 262 265 268 270 271 275 280 287 292 295 295 296 295 293 290 285 279 275 273 275 279 283 287 291 292 293 295 298 299 296 292 286 281 276 273 271 270 271 271 272 272 272 272 272 272 272 272 273 273 274 275 277 278 279 280 280 281 281 281 280 280 280 280 280 281 281 282 282 283 283 283 283 283 283 283 283 283 283 283 282 282 281 281
261 263 266 269 273 277 279 279 280 283 286 284 281 280 282 284 281 279 277 277 277 279 282 286 289 291 293 294 296 299 301 300 297 291 283 274 268 266 268 271 274 277 279 280 279 278 277 275 273 272 272 273 274 276 278 279 280 281 280 280 279 278 278 277 277 278 278 279 281 282 283 284 284 284 285 285 285 286 286 285 285 285 284 284 284 283
268 270 272 274 275 275 275 274 269 265 265 265 268 272 276 275 274 274 276 279 282 286 289 292 293 293 293 295 297 300 302 300 296 290 281 269 262 263 268 272 277 280 280 278 276 275 273 271 269 269 270 273 276 279 282 283 284 282 280 278 276 275 275 275 276 277 279 281 283 284 285 285 286 286 286 287 287 288 288 288 287 287 286 286 285 285
271 271 268 262 262 266 269 271 269 265 262 264 268 273 274 273 274 276 280 282 285 288 290 290 290 290 291 293 297 300 301 298 294 286 277 267 266 272 277 278 279 279 278 274 270 267 265 263 263 265 270 275 281 285 287 288 286 283 279 277 275 275 276 277 279 280 282 283 285 285 285 286 286 286 287 287 288 288 288 287 286 286 285 285 284 284
266 265 259 256 262 275 281 280 275 268 262 266 270 274 274 273 273 275 278 278 281 284 287 287 287 288 289 292 297 301 300 295 289 282 272 265 271 283 287 284 281 278 275 271 265 259 257 258 261 265 270 277 284 290 294 294 292 290 287 285 284 284 284 284 284 284 284 285 285 285 285 286 286 286 286 286 287 286 285 284 284 283 283 282 282 282
258 264 265 271 273 275 276 273 268 262 260 264 267 268 266 265 267 270 272 274 277 280 283 285 287 288 289 292 298 302 299 292 285 278 272 266 274 290 291 287 282 277 272 267 260 253 252 256 261 266 272 279 288 296 303 306 308 307 306 303 299 295 291 288 286 285 285 284 284 284 284 284 284 284 283 283 283 282 282 282 281 281 281 281 281 281
258 261 263 264 263 263 267 268 266 263 262 263 263 263 263 263 266 268 271 274 278 282 285 288 290 292 294 297 302 303 296 287 281 277 274 272 282 296 293 289 285 279 268 259 254 252 253 258 262 267 273 282 293 304 314 320 323 322 320 315 308 301 294 290 286 283 281 280 279 278 278 278 278 277 277 278 278 279 279 279 280 280 280 280 280 280
257 259 262 261 260 261 263 263 264 264 263 262 261 262 263 264 267 270 273 276 280 284 288 291 293 295 298 301 306 309 288 283 282 282 281 281 289 305 300 291 286 280 267 257 254 256 258 261 265 271 277 288 301 314 322 327 327 326 322 317 311 304 298 292 287 282 279 277 275 274 274 273 274 274 274 275 276 277 277 278 278 279 279 280 280 280
259 262 263 263 264 265 264 263 262 262 262 262 263 264 265 266 269 272 275 279 284 287 290 292 294 295 297 299 303 304 288 286 290 294 295 293 302 327 319 299 288 280 266 263 264 265 264 266 270 276 286 298 310 319 324 326 325 322 319 315 311 306 302 297 292 288 285 282 279 278 277 276 276 276 277 277 277 278 278 278 279 280 280 280 280 280
263 265 266 268 269 269 267 267 267 267 267 268 269 270 270 272 274 276 279 283 287 289 291 291 292 293 294 296 297 297 296 300 303 306 307 304 313 336 331 313 300 289 276 279 282 280 277 276 280 288 297 306 314 319 322 321 320 317 314 312 310 308 305 302 298 294 290 287 284 282 280 279 278 278 278 278 278 279 279 279 280 280 280 279 279 279
264 265 267 270 272 272 271 272 273 274 275 276 277 276 276 277 279 281 283 285 286 288 289 288 289 290 291 291 291 295 308 313 312 312 310 307 311 326 333 322 312 304 299 303 305 300 294 292 295 301 307 311 315 317 317 316 314 311 310 308 308 307 305 302 298 294 290 286 282 280 277 276 275 274 273 273 273 274 274 275 275 276 276 276 277 277
265 265 267 269 271 272 273 275 275 276 277 277 277 276 277 278 279 281 282 283 284 285 285 285 286 286 286 285 286 296 314 314 311 309 308 304 309 321 329 323 316 312 311 314 315 310 305 303 304 307 309 311 312 312 312 310 308 306 306 307 307 306 304 300 296 292 287 283 280 277 274 272 271 270 270 269 269 270 270 271 271 272 273 274 275 276
267 267 268 268 269 270 271 272 273 274 274 274 274 275 276 277 278 279 280 281 282 283 283 283 283 283 282 283 289 302 311 311 308 306 304 302 307 317 323 321 316 313 313 316 315 311 307 305 306 307 308 309 309 308 307 306 304 304 306 307 308 306 303 299 295 291 287 283 281 278 276 274 273 272 271 271 271 271 272 272 273 274 274 275 275 276
266 266 267 267 267 267 268 269 269 270 270 271 271 272 274 275 276 276 277 279 280 281 282 282 281 279 279 284 292 299 306 305 305 305 304 302 306 313 318 319 315 312 311 312 311 307 304 303 303 305 306 307 306 305 304 303 303 305 308 310 310 308 304 300 296 293 290 287 285 283 281 279 278 276 275 275 274 274 274 274 274 274 275 275 276 277
268 268 268 268 268 268 269 269 269 270 271 271 272 272 273 273 274 274 275 276 276 277 278 278 277 278 282 288 294 301 309 309 309 310 307 304 306 310 315 317 315 311 309 307 306 304 303 301 302 303 305 306 305 304 303 304 306 309 312 314 314 312 308 304 300 296 294 291 289 287 285 283 281 279 278 276 275 274 273 272 272 272 273 274 275 276
271 271 272 273 274 274 274 274 273 273 273 273 274 275 276 277 277 277 277 277 278 278 277 278 280 284 292 297 302 308 314 315 315 313 310 305 304 307 312 316 314 310 307 305 305 304 303 302 302 304 306 307 306 305 305 307 310 314 317 319 318 316 312 307 303 300 297 294 292 290 287 285 283 280 278 276 275 273 272 271 270 271 271 272 273 273
277 278 279 279 279 278 278 277 276 274 272 270 270 272 275 277 278 279 280 282 283 284 285 286 287 290 296 299 304 309 314 314 314 314 311 305 302 304 310 314 313 309 307 305 305 305 305 304 305 307 308 308 308 308 309 312 315 318 320 321 320 318 313 309 305 302 299 297 294 292 289 287 285 282 280 278 276 274 272 271 270 270 270 271 271 270
286 287 286 285 285 283 281 279 276 274 272 268 265 264 265 267 269 271 273 277 280 280 280 280 283 289 294 299 304 309 312 314 315 314 311 305 301 303 309 311 310 309 308 307 305 304 304 305 307 308 309 309 310 311 313 316 318 320 321 321 320 317 313 309 306 303 301 300 298 296 294 292 289 287 285 283 280 278 276 274 272 271 270 270 269 269
292 293 292 291 290 288 286 282 279 276 272 269 265 262 260 260 261 263 267 271 273 273 275 278 283 290 295 301 305 308 311 316 317 314 311 304 301 302 306 307 308 308 308 308 305 303 303 305 307 309 310 310 312 313 315 316 317 318 319 319 317 315 313 310 308 306 305 304 303 301 300 298 296 293 291 288 286 284 282 279 277 275 273 271 270 270
291 292 291 290 288 287 285 283 280 276 271 267 264 260 258 258 259 261 266 269 270 272 276 282 288 293 298 302 303 305 309 313 313 311 309 303 300 301 303 304 305 307 308 309 308 306 305 306 307 308 309 310 311 313 314 315 316 317 317 317 316 314 313 311 309 308 307 307 306 306 305 304 302 299 295 292 289 287 285 283 280 278 276 274 273 273
289 288 286 284 282 281 280 279 277 274 270 265 261 259 259 260 261 264 268 270 273 277 282 287 291 294 297 298 297 298 302 306 307 307 307 302 300 301 303 304 304 305 307 308 309 308 307 307 307 307 307 308 309 310 312 313 315 316 316 316 315 314 313 312 310 309 308 308 307 308 308 307 305 302 298 294 290 287 284 282 280 278 276 276 276 275
289 286 284 281 279 277 275 274 273 270 266 262 259 258 259 260 263 267 270 273 276 280 284 288 291 293 294 294 294 295 300 303 306 307 307 303 302 302 304 304 305 305 305 305 305 305 304 305 306 306 307 307 308 309 311 313 315 316 316 314 313 312 312 311 310 309 308 307 307 308 309 309 308 304 300 296 291 287 284 281 278 276 276 277 278 278
290 288 285 282 279 276 273 270 268 265 262 258 256 255 256 259 262 266 269 274 277 280 283 288 290 293 294 296 297 299 302 305 308 310 309 306 304 304 305 305 305 305 305 305 304 302 300 301 304 306 307 307 308 309 310 312 313 314 314 313 311 310 310 309 309 308 308 307 307 307 309 310 309 307 303 299 295 290 285 281 278 277 276 278 281 282
294 292 290 286 282 277 272 268 264 260 257 255 254 256 258 261 265 270 274 278 283 286 288 291 293 295 297 299 300 302 305 308 310 311 310 307 305 304 304 305 305 305 306 305 304 303 302 301 303 305 306 306 306 308 309 311 312 312 312 311 310 309 308 308 309 308 308 307 307 308 309 311 311 310 308 304 300 294 289 285 283 280 278 278 280 282
298 297 294 291 285 278 272 266 260 257 254 255 257 261 266 271 276 281 285 290 294 297 298 298 299 299 299 300 301 303 306 309 310 310 309 305 303 302 302 302 303 304 304 304 303 303 302 302 302 303 304 305 305 307 308 310 310 310 309 309 308 308 308 309 310 310 310 309 309 310 312 313 314 313 312 310 306 301 296 292 289 285 282 279 277 277
300 299 296 291 285 277 270 263 259 257 256 258 263 270 276 283 288 293 297 299 301 303 304 304 303 302 301 300 300 302 305 308 309 308 306 303 301 300 299 299 300 301 301 301 302 302 302 302 302 302 302 303 304 306 307 309 309 309 308 308 308 308 309 312 313 314 314 314 314 315 316 317 318 317 316 314 311 306 301 297 292 287 283 279 275 274
299 297 294 289 283 275 268 264 263 262 263 264 269 276 283 289 293 296 299 300 301 301 301 302 302 302 302 302 301 302 305 308 308 306 304 301 298 296 295 296 297 298 298 299 299 300 301 302 302 302 302 302 303 305 307 309 310 309 309 310 311 312 313 316 319 320 319 319 319 319 320 320 320 320 318 317 313 309 302 297 291 286 281 278 276 275
296 294 290 286 280 274 269 267 267 269 271 272 275 280 286 290 293 295 296 297 297 297 297 298 298 298 298 298 300 302 304 305 305 303 299 295 293 292 292 293 294 295 295 296 297 298 299 300 301 301 302 302 303 304 307 309 311 312 312 313 314 316 319 321 323 323 322 321 321 321 321 322 322 321 319 318 315 311 306 301 295 290 286 283 281 280
293 291 287 284 280 275 271 269 269 272 276 280 284 288 291 292 294 294 294 294 295 295 296 295 295 294 294 294 296 297 298 297 296 294 290 288 287 288 289 290 291 292 293 293 294 295 297 297 298 299 300 302 304 306 308 310 312 314 315 316 318 319 321 322 323 322 322 322 322 322 322 322 322 321 320 318 317 315 313 310 306 303 301 298 294 289
290 288 285 282 279 274 271 269 271 275 281 286 291 293 294 295 295 295 295 295 295 295 294 293 292 292 291 290 290 289 288 287 286 285 284 284 285 286 287 288 289 290 291 291 292 292 294 295 296 297 299 301 304 306 308 311 312 314 316 316 317 319 321 321 321 321 321 321 322 322 322 322 322 321 320 319 318 317 316 315 313 312 311 310 308 305
287 285 283 280 276 273 272 273 276 281 286 290 292 294 296 296 297 296 296 296 295 294 293 292 291 289 287 286 285 285 285 285 285 285 285 286 285 285 286 287 288 289 290 291 292 293 293 294 296 298 300 303 305 306 308 310 311 313 313 313 314 316 318 318 319 319 320 320 321 321 321 322 322 321 320 318 317 316 316 316 316 315 314 314 313 312
283 281 280 277 275 274 276 278 282 285 289 292 294 296 297 298 299 300 300 299 298 297 296 295 293 291 289 288 288 288 288 289 289 289 289 288 286 285 285 286 288 289 291 293 294 295 296 297 298 300 302 305 306 306 306 308 310 311 310 310 312 314 316 316 317 317 318 318 319 320 321 322 322 322 320 317 316 316 317 318 317 317 317 317 316 315
280 278 276 275 275 277 279 282 285 288 290 293 295 298 300 301 303 303 303 303 302 301 300 298 297 296 294 293 292 292 293 293 293 293 292 290 287 286 285 286 288 290 292 295 296 297 299 300 300 301 304 306 306 304 303 305 308 308 308 309 310 309 308 311 314 316 316 317 318 320 322 323 323 321 319 317 316 316 318 319 319 318 318 318 317 316
278 276 275 275 276 278 281 284 287 289 291 294 298 301 303 305 306 306 306 305 305 304 302 301 300 299 299 298 298 298 299 299 299 298 297 294 291 289 288 289 290 292 294 297 298 300 302 303 303 304 307 307 305 302 302 303 304 306 307 308 308 305 303 306 311 315 317 318 319 321 323 324 323 321 318 316 316 317 318 318 318 319 319 319 318 315
276 275 275 276 278 281 284 286 288 291 294 298 301 304 306 307 308 308 307 306 306 305 305 304 304 305 304 302 302 303 304 305 305 304 303 301 297 294 293 293 294 297 298 300 301 302 304 305 306 308 309 307 303 300 299 300 302 304 306 307 307 305 305 308 311 314 315 318 320 322 324 325 324 321 318 317 318 318 318 318 317 317 317 317 315 312
276 276 277 279 281 284 287 288 290 293 297 301 303 306 308 309 309 308 307 307 307 307 306 306 307 308 306 306 306 307 308 308 308 309 309 308 305 302 300 300 302 303 304 305 306 307 306 306 307 309 309 306 302 299 298 299 300 302 305 306 307 306 307 309 311 314 316 318 320 322 325 326 323 319 316 315 316 316 316 315 314 313 312 311 309 306
279 279 280 281 283 285 287 289 292 296 300 303 305 307 309 310 309 308 307 307 308 308 308 307 308 308 307 308 310 311 312 311 311 313 315 316 314 312 310 310 311 311 312 312 311 311 310 309 310 309 307 303 300 299 300 301 301 301 303 306 307 306 306 308 312 315 317 318 320 322 325 323 319 315 313 313 313 312 311 310 308 307 305 303 302 301
281 281 283 284 286 288 290 293 296 300 304 305 307 308 309 310 310 310 309 309 309 309 309 309 309 309 308 310 312 314 314 313 315 317 320 321 320 318 318 318 318 318 317 317 316 314 313 311 310 308 305 301 298 299 302 303 303 303 304 305 306 306 306 309 313 316 317 317 319 320 321 318 315 312 312 310 308 306 305 303 302 301 300 299 299 299
283 284 286 288 290 292 296 298 301 304 306 308 309 309 310 310 311 311 312 311 310 310 311 311 311 310 311 313 316 317 318 318 319 321 323 323 323 322 322 323 323 322 321 319 318 316 315 313 311 309 305 302 299 300 302 304 305 305 306 305 305 305 306 308 311 313 314 314 315 316 315 312 310 308 307 304 302 300 299 298 298 299 300 301 303 304
285 286 288 290 293 296 299 301 304 306 309 310 311 311 311 311 311 312 312 312 312 312 313 313 314 314 314 316 318 321 322 323 323 324 326 325 325 325 325 326 326 327 325 321 319 318 316 313 310 308 306 302 300 299 300 303 306 306 305 303 302 303 303 305 307 308 309 309 309 309 308 306 304 302 300 298 296 296 297 298 300 302 304 306 307 308
287 288 289 291 294 298 300 303 306 308 310 311 311 312 312 312 313 314 314 315 316 316 316 317 318 318 316 318 320 322 324 325 325 326 328 327 326 326 326 327 327 327 325 321 318 316 314 311 308 306 304 302 300 298 297 299 302 303 301 300 300 301 300 301 302 303 304 304 303 302 301 299 298 297 296 295 295 296 297 299 300 303 306 309 310 311